Flag for U.S.A. Weather past 2 weeks in Lincoln, Nebraska, U.S.A.

Now
42 °F

Sunny.


Feels Like: 33 °F
Forecast: 30 / 54 °F
Wind: 22 mph from North

Location: Lincoln Municipal Airport


UV Index: 5 (Moderate)

Visibility: 9 mi


Pressure: 30.00 "Hg

Humidity: 60%

Dew point: 29 °F

Location of LincolnLocation

Historic Weather in Lincoln

°F

Lincoln temperature yesterday

Maximum temperature yesterday: 59 °F (at 5:54 PM)
Minimum temperature yesterday: 19 °F (at 5:54 AM)
Average temperature yesterday: 41 °F

Past Weeks' High & Low Weather Summary

 TemperatureHumidityPressure
High84 °F (Apr 9, 5:54 PM)93% (Apr 3, 2:54 AM)30.27 "Hg (Apr 3, 2:54 AM)
Low19 °F (Apr 15, 5:54 AM)12% (Apr 10, 4:54 PM)29.48 "Hg (Apr 12, 8:54 PM)
Average50 °F52%29.91 "Hg
* Reported Apr 1 7:54 PM — Apr 16 7:54 PM, Lincoln, Weather by CustomWeather, © 2014

Note: Actual official high and low records may vary slightly from our data, if they occured in-between our weather recording intervals... More about our weather records

Advertising

Historic Weather Conditions — Data for Previous 24 hours

 ConditionsComfort  
Time TempWeatherWind HumidityBarometerVisibility
7:54 PM
Apr 16
42 °FSunny.22 mph60%30.00 "Hg9 mi
6:54 PM47 °FSunny.29 mph52%29.94 "Hg10 mi
5:54 PM50 °FSunny.26 mph48%29.88 "Hg10 mi
4:54 PM53 °FPassing clouds.29 mph47%29.82 "Hg10 mi
3:54 PM63 °FPartly sunny.24 mph37%29.74 "Hg10 mi
2:54 PM69 °FSunny.20 mph23%29.69 "Hg10 mi
1:54 PM68 °FSunny.23 mph20%29.69 "Hg10 mi
12:54 PM63 °FSunny.25 mph25%29.70 "Hg10 mi
11:54 AM62 °FSunny.28 mph23%29.70 "Hg10 mi
10:54 AM56 °FSunny.29 mph30%29.70 "Hg10 mi
9:54 AM54 °FSunny.29 mph31%29.70 "Hg10 mi
8:54 AM52 °FSunny.24 mph35%29.70 "Hg10 mi
7:54 AM51 °FSunny.20 mph35%29.71 "Hg10 mi
6:54 AM51 °FClear.26 mph32%29.69 "Hg10 mi
5:54 AM50 °FClear.22 mph35%29.70 "Hg10 mi
4:54 AM49 °FClear.22 mph36%29.72 "Hg9 mi
3:54 AM48 °FClear.20 mph39%29.74 "Hg8 mi
2:54 AM49 °FClear.24 mph35%29.75 "Hg7 mi
1:54 AM50 °FClear.23 mph33%29.77 "Hg7 mi
12:54 AM50 °FClear.22 mph33%29.80 "Hg9 mi
11:54 PM
Apr 15
51 °FClear.20 mph35%29.81 "Hg10 mi
10:54 PM51 °FClear.17 mph35%29.83 "Hg10 mi
9:54 PM52 °FClear.16 mph32%29.84 "Hg10 mi
8:54 PM54 °FSunny.15 mph30%29.85 "Hg10 mi
Weather by CustomWeather, © 2014

See weather overview